Theta_e
338 341 340 338 337 334 333 331 327 329 332 333 332 333 335 332 327 328 333 333 332 332 332 333 334 334 334 335 335 335 334 334 334 334 335 334 333 332 332 331 331 330 329 328 328 328 327 326 323 320 318 316 314 314 313 312 310 310 310 309 309 310 310
337 340 341 339 336 332 330 329 328 330 331 332 333 333 334 333 328 328 332 332 331 332 333 334 335 333 333 335 335 335 334 333 333 333 334 334 333 333 332 332 332 331 329 329 329 328 328 327 325 322 320 317 316 315 314 313 312 310 310 310 309 309 310
336 339 341 340 337 334 333 332 333 334 331 332 336 335 334 333 329 329 331 332 332 333 334 336 337 335 333 334 335 334 333 332 333 333 333 333 332 332 332 332 332 331 329 329 328 327 327 327 325 324 322 319 318 317 316 316 314 311 310 310 309 309 310
337 337 340 341 339 337 337 337 336 336 334 335 336 335 334 333 329 329 332 334 334 333 334 336 336 335 334 334 334 334 333 332 333 333 332 332 331 331 332 332 331 330 329 329 328 326 326 326 325 324 323 321 320 319 318 317 315 312 310 310 310 310 310
338 336 338 341 341 339 338 338 337 336 336 336 336 335 335 332 328 329 332 334 335 335 335 334 334 334 334 333 333 333 333 332 332 332 331 331 331 331 331 331 331 330 329 329 328 327 325 325 325 324 324 323 321 321 320 318 316 313 311 310 310 311 310
339 337 336 339 340 341 339 339 338 337 337 337 336 335 335 331 328 331 333 333 334 335 336 335 334 335 333 333 334 333 332 332 332 331 331 330 330 331 331 332 331 330 329 329 328 327 326 326 325 325 325 323 322 321 319 317 316 314 311 310 310 310 310
341 338 337 337 338 340 341 339 339 339 338 337 337 336 335 334 332 334 335 334 334 335 336 335 334 334 334 334 336 333 331 332 332 331 331 331 331 331 332 332 331 330 330 330 328 327 327 327 326 325 325 324 323 321 319 317 315 314 312 311 310 310 309
343 340 339 338 337 340 341 341 339 339 338 337 337 337 337 336 335 336 336 334 335 336 336 335 333 333 333 334 335 333 332 332 331 331 331 331 331 332 331 331 331 331 330 330 329 328 327 327 326 325 325 324 323 321 320 317 314 313 312 311 310 309 309
345 344 342 339 338 339 341 342 340 339 338 338 337 336 336 335 334 336 337 335 336 336 336 335 334 334 333 333 334 333 333 333 331 331 331 331 331 332 331 331 331 331 331 330 329 328 327 327 326 325 324 323 323 322 321 318 315 313 312 311 310 309 309
346 346 344 342 340 339 341 341 341 340 339 338 337 335 334 333 332 334 337 336 336 336 335 334 334 334 334 334 335 334 334 334 333 332 331 332 332 332 332 332 332 332 331 330 329 328 327 326 326 325 323 323 323 323 321 319 318 315 312 311 311 310 308
346 346 346 344 342 341 342 341 341 340 340 339 337 334 333 332 330 331 335 337 337 336 335 334 333 334 335 335 335 335 335 335 334 333 332 332 332 333 333 332 332 332 332 330 328 327 326 326 325 324 323 323 323 322 321 319 319 317 314 312 310 310 309
346 345 346 346 344 342 342 342 341 341 340 339 337 335 334 333 331 330 332 336 337 336 336 336 335 336 336 336 336 335 334 334 334 334 333 332 332 332 331 331 331 331 330 329 327 326 326 325 324 324 324 323 322 321 320 319 319 318 316 313 311 310 309
346 346 346 346 345 344 343 343 343 342 341 341 339 338 337 335 334 332 331 334 336 336 337 337 336 336 337 336 335 334 333 333 333 333 333 332 331 330 330 330 330 329 329 328 326 326 325 325 324 324 323 321 320 319 319 318 317 317 316 314 313 311 308
346 346 345 345 345 345 344 344 343 342 342 342 342 341 338 334 335 334 331 333 337 337 337 338 337 337 337 335 335 333 332 332 332 332 331 330 330 329 329 329 328 328 328 327 326 325 325 324 323 321 318 318 317 317 318 317 316 316 316 315 314 311 309
346 345 345 345 345 344 344 343 343 342 342 343 342 341 338 334 336 336 331 332 337 338 338 338 338 337 336 335 334 333 332 332 331 331 330 329 329 328 328 328 327 327 326 326 325 324 323 321 319 317 315 315 316 316 316 316 314 315 317 316 314 312 310
346 345 344 344 344 344 344 343 342 342 343 343 342 341 339 336 337 338 332 332 337 339 339 339 338 337 336 334 333 332 331 331 331 330 329 329 329 327 327 327 327 327 326 326 324 321 319 317 316 315 314 314 315 314 315 314 312 313 316 317 315 312 310
346 345 344 344 344 344 344 343 343 343 343 343 343 342 340 338 339 338 334 332 337 338 339 338 337 336 335 333 332 332 331 331 331 330 329 329 328 327 327 326 326 326 325 324 322 318 315 315 315 314 313 313 313 313 314 314 311 311 315 317 314 310 309
344 344 345 344 344 344 344 343 343 343 343 343 343 342 341 340 340 339 334 332 336 338 338 338 337 335 335 333 332 332 331 331 331 330 329 328 327 327 326 324 323 323 322 320 317 313 312 313 311 311 312 313 312 312 313 312 310 312 315 315 312 308 308
343 344 345 345 344 344 344 343 343 343 343 343 342 342 342 341 340 339 335 332 334 338 338 338 337 336 334 333 332 331 331 331 330 330 328 328 327 325 324 322 320 320 319 317 313 310 309 309 307 307 310 311 311 312 312 311 310 312 311 311 311 309 308
343 344 345 345 344 344 344 343 343 343 343 343 342 341 341 341 339 339 337 333 333 338 338 337 337 335 334 333 332 331 331 330 329 329 327 326 326 325 324 323 320 318 317 314 311 307 307 307 304 304 307 308 309 312 312 309 308 308 307 308 311 310 308
343 344 344 344 345 344 343 343 342 343 342 342 342 341 341 340 339 339 338 335 334 337 338 337 336 335 333 333 331 331 330 330 328 327 326 325 325 325 324 323 320 318 316 313 309 307 307 306 302 302 304 305 308 311 309 305 304 306 308 309 310 310 308
343 344 343 344 345 344 343 343 342 342 342 342 341 341 340 340 340 339 338 336 335 336 337 337 336 334 333 332 331 330 330 329 328 326 324 324 325 324 324 322 319 317 315 312 309 308 306 304 301 301 302 302 305 306 304 302 305 308 310 309 310 309 308
341 343 344 344 344 344 344 343 342 342 342 341 341 341 340 340 339 338 338 337 336 335 337 337 336 334 333 331 330 330 329 329 327 325 323 324 325 324 323 321 318 316 315 312 309 307 306 303 300 301 301 301 301 300 301 304 307 309 309 309 309 308 307
339 341 343 344 344 344 344 343 342 342 342 341 341 341 340 339 339 338 338 338 336 335 337 337 336 334 333 331 330 329 329 328 326 324 323 325 325 324 323 321 317 316 315 312 309 307 304 302 300 300 301 300 300 299 301 306 309 308 309 308 307 307 307
339 338 341 343 343 342 343 342 342 342 342 341 341 341 340 339 339 338 337 337 337 336 336 336 336 334 333 331 330 329 328 327 326 323 324 326 326 325 323 320 318 317 316 313 309 306 302 301 300 300 300 300 300 299 300 305 307 307 308 307 307 307 307
339 337 340 343 343 342 342 341 341 342 342 341 341 340 340 339 338 337 337 337 337 336 336 336 335 334 334 334 332 330 328 327 325 323 324 326 326 324 322 319 317 318 317 313 308 303 301 300 300 299 299 299 299 299 299 301 303 305 307 307 307 307 306
338 337 340 342 342 341 341 340 341 342 341 341 340 340 339 339 338 337 337 336 336 336 335 335 335 335 335 335 334 332 330 327 325 323 323 324 325 322 320 319 317 316 317 313 307 302 300 300 300 299 299 299 299 299 299 299 300 302 304 305 307 307 306
337 338 341 342 341 340 340 340 340 341 341 340 340 339 339 339 338 337 336 336 336 336 335 334 334 335 336 335 334 333 332 328 325 324 322 322 323 321 318 317 316 314 314 312 306 302 300 300 299 299 299 298 299 299 298 298 299 300 302 303 304 306 306
339 340 341 341 340 340 339 339 340 340 340 340 340 339 338 338 338 337 336 336 336 335 335 333 334 336 336 335 334 333 332 328 325 324 321 320 321 320 317 316 314 311 310 309 305 301 300 300 299 299 299 298 298 298 298 298 299 299 299 300 300 301 304
338 340 341 340 340 339 339 339 339 340 340 340 339 339 338 338 337 336 336 336 335 335 335 333 334 336 336 335 333 332 331 328 325 323 321 318 319 319 316 314 313 309 307 305 303 300 299 299 299 298 298 299 298 298 298 298 299 299 298 298 297 298 299
335 338 340 340 340 339 338 338 339 339 339 339 339 339 338 337 337 336 336 335 334 334 335 334 335 336 336 334 332 331 330 327 324 323 320 317 318 317 315 313 311 308 306 304 301 300 299 299 299 298 298 298 299 298 299 299 300 299 297 297 297 297 297
335 338 339 341 340 339 337 338 339 339 339 339 339 339 338 337 336 336 336 335 334 334 335 335 336 336 335 334 332 331 330 326 324 323 319 316 317 316 313 311 309 306 306 305 301 299 299 298 298 299 299 300 301 300 301 302 300 298 297 297 296 296 296
337 338 339 339 339 337 337 338 338 338 339 339 339 338 337 337 336 336 335 334 334 334 335 336 336 336 335 334 332 331 329 327 323 321 318 317 318 316 313 311 308 305 305 305 303 300 299 298 299 300 302 303 303 303 304 304 302 299 298 297 296 296 296
339 339 339 338 337 337 338 338 338 338 339 339 338 338 337 336 336 335 335 334 333 334 336 336 336 335 334 333 332 330 329 327 323 319 319 320 320 317 313 311 309 305 303 303 303 300 299 298 298 300 302 303 304 305 306 306 304 301 298 297 296 296 296
340 340 339 338 338 338 337 337 337 338 339 339 338 337 336 336 335 334 333 333 332 334 335 335 335 334 334 334 332 330 329 328 324 320 321 322 320 315 313 312 311 307 303 301 300 299 299 299 298 299 300 302 304 305 306 307 306 304 300 299 299 297 298
340 340 339 338 338 338 337 337 338 338 339 339 338 337 336 336 335 333 332 332 331 333 335 335 335 335 335 334 332 330 329 328 326 323 322 321 318 315 313 313 312 310 305 301 299 299 298 298 299 298 299 300 301 302 303 304 306 305 303 302 303 303 303
340 339 338 338 338 337 337 338 338 338 339 338 337 337 336 336 335 333 332 331 330 331 334 335 335 335 335 334 332 330 329 328 327 326 323 319 316 314 313 314 314 311 306 302 302 302 300 298 298 298 298 299 299 300 300 301 304 306 305 303 303 304 304
Wind_Speed
24 20 17 18 19 21 22 23 25 24 23 23 22 22 22 21 21 20 20 21 21 21 20 20 20 19 18 16 16 16 15 16 18 17 15 16 17 16 16 17 15 13 11 10 9 7 7 8 10 13 14 15 15 14 13 12 12 13 14 13 10 10 11
22 19 16 18 20 21 22 23 23 23 23 22 21 22 22 21 21 21 21 22 22 22 21 20 20 19 19 18 17 17 18 18 18 17 17 17 17 14 13 16 15 13 12 11 10 9 8 9 9 12 15 15 16 16 15 14 13 13 14 15 12 10 12
23 20 18 21 22 21 22 22 22 22 22 20 20 21 21 20 21 21 21 22 22 22 21 19 18 18 19 18 18 18 19 19 17 17 18 17 16 14 13 13 13 13 13 11 10 9 9 10 11 10 13 16 17 16 16 15 13 14 14 15 13 10 11
24 22 22 23 22 21 22 23 23 22 20 18 18 20 21 22 23 22 22 22 22 23 21 19 19 18 17 18 20 20 18 18 17 17 18 17 16 15 14 13 12 13 14 12 11 10 10 11 11 10 11 14 16 15 16 16 13 14 15 14 13 11 11
27 25 25 24 22 22 23 23 23 21 18 18 19 19 20 23 24 24 24 23 23 23 21 20 19 19 18 19 21 22 19 19 18 17 18 19 18 17 15 14 13 14 14 12 11 11 11 12 11 12 11 11 14 13 14 16 13 13 15 14 13 12 12
30 28 27 26 24 23 23 24 23 20 19 19 19 19 20 23 25 24 24 25 24 22 20 20 19 19 20 21 21 23 21 20 19 18 19 20 19 17 15 14 14 15 15 13 13 12 12 13 12 13 12 12 14 12 8 13 13 12 14 15 14 12 12
31 31 28 28 27 22 21 23 23 20 20 19 18 18 18 22 25 24 25 25 24 22 20 19 19 20 21 21 21 22 21 20 19 19 19 19 18 17 15 14 14 16 15 14 14 13 13 14 13 14 13 13 13 10 7 9 11 12 13 14 13 12 12
28 31 30 29 28 25 22 21 22 22 21 19 18 17 17 20 24 25 25 25 24 23 21 20 21 21 22 22 21 20 20 21 21 20 19 19 19 17 16 16 15 14 15 15 15 15 14 15 15 14 13 13 12 10 11 10 10 12 13 13 13 13 12
27 29 31 30 29 27 24 22 22 23 22 20 20 20 18 20 24 24 24 24 23 23 22 21 21 22 22 21 20 20 21 22 22 21 21 20 19 17 17 18 17 16 16 16 15 15 15 16 16 15 13 14 14 12 13 12 12 12 12 13 13 13 13
29 27 29 32 30 27 24 24 23 22 22 24 25 24 22 21 23 24 24 23 24 24 22 22 21 21 21 21 20 19 19 19 20 22 22 21 19 17 17 18 18 17 16 15 15 16 17 16 17 16 15 15 15 14 12 12 13 13 13 14 13 12 14
32 28 26 29 31 28 25 25 26 25 26 29 28 26 24 21 21 24 24 24 24 24 23 22 22 21 22 20 19 17 16 16 18 20 20 20 18 17 17 17 17 16 15 15 15 15 17 17 16 15 16 15 15 15 14 12 11 12 13 15 13 12 13
32 29 26 27 28 29 28 27 27 28 29 30 27 24 22 21 21 24 26 25 24 24 23 21 22 22 21 19 18 18 17 17 17 17 18 20 19 18 18 17 17 17 16 16 16 15 16 17 16 16 17 16 15 15 15 12 11 9 11 14 13 11 13
30 28 28 29 27 27 29 29 27 27 27 26 24 23 22 22 23 24 26 26 25 25 23 21 22 21 20 20 20 20 19 18 17 16 16 16 15 16 17 17 18 19 17 15 15 16 17 17 18 19 17 16 15 15 14 13 12 9 10 13 12 11 13
31 29 30 32 30 28 29 29 28 26 25 24 23 23 25 26 25 24 26 26 24 24 23 22 22 21 20 21 20 19 18 19 18 15 15 16 14 14 16 16 17 17 16 16 16 18 19 19 20 20 17 15 15 15 15 15 14 11 12 14 13 13 16
29 30 31 33 32 30 29 29 29 28 26 26 26 25 27 29 26 24 26 27 24 23 22 22 21 21 22 21 19 18 19 20 19 17 17 18 16 15 16 17 18 18 17 19 21 20 19 19 18 18 17 16 15 15 16 16 15 13 13 16 16 17 19
28 31 33 35 34 32 32 30 28 27 26 27 27 27 30 30 25 23 28 30 26 23 22 22 23 22 21 21 20 21 21 20 19 18 17 18 18 18 19 20 21 21 21 22 24 21 19 18 17 16 16 17 16 15 16 16 16 15 13 15 17 17 17
29 32 35 37 34 32 34 32 26 26 27 28 28 28 29 28 24 25 30 32 29 25 25 25 26 24 21 20 22 23 21 20 20 18 17 18 20 20 21 21 20 22 24 25 25 24 21 19 19 17 15 16 17 16 15 17 17 15 12 14 16 14 12
31 33 34 36 35 34 35 33 28 26 27 29 30 29 27 26 25 28 32 34 31 28 26 24 24 24 22 21 23 23 22 21 20 20 18 19 21 21 22 24 22 24 27 27 26 26 24 22 22 19 17 16 16 16 17 17 16 15 13 12 12 11 11
32 32 30 33 36 38 36 33 29 27 26 29 32 30 27 26 27 29 33 36 33 27 25 23 21 21 20 21 24 24 23 21 19 20 19 19 21 22 24 26 24 26 29 27 26 26 25 25 25 22 19 18 15 16 18 17 16 17 16 13 10 11 13
31 32 29 30 36 38 36 32 31 28 28 31 33 31 29 28 29 29 32 36 33 27 24 23 23 22 20 21 24 24 24 22 19 19 19 20 22 25 26 26 25 27 29 27 26 26 26 26 25 23 23 20 16 17 19 18 17 17 16 13 11 12 13
28 29 28 28 33 38 38 34 31 29 30 32 33 32 30 29 29 28 30 34 33 27 24 24 26 25 24 25 26 24 24 23 21 19 20 22 24 26 27 26 25 27 28 27 26 26 27 27 25 24 24 21 20 21 21 19 16 15 14 13 13 12 12
26 26 27 27 30 36 40 37 32 31 32 32 33 34 32 29 30 28 28 32 34 29 25 26 27 26 26 28 27 23 23 23 21 20 21 24 25 26 26 26 26 26 27 27 26 27 27 26 25 24 25 24 24 24 21 17 15 14 13 14 13 13 12
29 27 27 27 29 34 38 39 35 33 33 32 32 35 34 31 31 29 28 31 34 30 27 28 28 26 26 26 25 23 23 23 20 20 23 26 26 26 26 25 25 26 27 27 28 28 27 26 25 25 26 26 26 23 20 16 15 15 14 14 14 13 13
32 31 28 27 31 34 35 38 38 35 33 31 32 36 35 31 30 30 28 31 34 31 30 31 31 30 30 28 24 23 23 22 19 20 25 27 26 26 26 25 26 28 29 29 29 28 27 26 27 27 27 26 24 22 20 18 16 15 14 14 13 13 13
32 31 27 26 32 34 34 38 40 37 35 34 33 36 35 31 30 30 28 29 33 32 31 32 32 33 34 32 28 23 20 19 19 21 26 28 26 26 27 26 28 30 30 29 28 27 27 27 27 28 27 25 23 23 23 21 18 16 15 13 13 13 13
32 30 27 26 31 33 35 40 41 39 38 37 35 35 35 32 30 30 28 29 32 32 31 34 35 35 33 31 30 26 20 18 18 21 26 28 26 26 27 27 29 31 30 28 28 27 28 28 28 28 27 24 24 24 24 22 20 19 18 15 12 13 13
33 30 27 28 31 33 36 40 40 40 40 38 35 36 36 33 31 31 30 30 32 33 35 38 37 34 32 30 30 30 25 19 18 19 23 26 26 26 27 28 29 31 30 27 28 29 30 29 29 28 27 25 25 24 23 22 21 21 21 18 14 12 12
33 30 26 28 31 33 36 39 39 39 39 36 36 38 37 35 35 35 32 30 30 31 36 42 39 33 33 32 31 31 28 22 19 19 20 24 26 26 26 28 28 30 29 27 27 29 30 29 28 27 27 26 25 24 23 22 21 21 23 22 19 14 12
33 29 27 30 33 33 36 39 39 39 38 36 36 38 37 35 37 37 34 32 31 31 37 44 40 34 34 34 31 30 29 24 20 19 20 23 26 26 26 28 28 29 29 27 27 29 30 29 28 27 27 26 25 24 23 22 22 23 24 25 24 21 18
34 31 30 32 34 36 37 39 40 40 39 39 38 38 36 34 34 32 33 34 32 31 38 44 40 34 34 35 31 29 29 25 20 18 20 23 26 26 27 28 28 28 29 28 27 29 30 29 28 27 27 26 25 24 23 23 22 23 24 24 24 23 22
34 32 31 31 32 36 39 39 40 41 40 40 40 39 35 32 29 28 30 32 28 29 38 43 39 35 36 35 31 29 31 27 21 19 21 23 25 26 26 28 28 27 28 29 28 29 30 28 27 27 27 26 25 23 23 23 22 22 23 24 23 23 23
33 30 30 31 32 36 39 40 41 41 39 38 38 36 33 31 29 28 29 30 28 30 38 42 39 36 36 36 31 29 30 27 22 21 23 23 25 26 25 28 29 26 26 29 28 28 29 27 26 26 25 24 23 22 21 22 22 22 23 23 23 23 23
32 29 29 32 35 36 37 39 40 39 38 37 33 30 30 29 27 27 29 30 29 32 39 42 39 36 36 37 33 29 30 29 23 22 25 24 25 25 24 26 29 28 28 29 28 28 27 26 26 25 23 22 21 20 19 20 21 21 21 22 23 22 22
32 32 31 32 35 36 36 37 38 37 37 37 32 27 29 29 26 26 27 27 28 34 40 41 38 37 37 37 33 30 32 33 27 25 27 26 25 24 23 24 28 31 32 32 30 27 26 27 28 26 24 22 21 19 18 17 19 20 20 20 22 22 22
32 34 33 30 32 35 35 35 37 38 39 38 33 29 30 31 27 26 27 26 25 32 40 41 40 38 37 36 34 31 32 35 32 29 28 26 25 23 22 23 28 31 32 32 30 27 26 27 28 28 26 24 23 22 20 17 16 18 18 17 19 20 20
33 34 33 31 31 33 33 34 36 38 39 38 34 30 30 31 28 25 25 25 23 28 39 43 41 39 37 36 36 33 32 34 35 32 28 26 26 24 22 24 29 30 29 30 29 25 25 26 27 28 29 28 26 25 24 19 15 15 16 16 16 17 18
35 34 32 31 31 31 32 34 35 35 35 34 30 27 28 31 31 26 23 22 21 27 39 44 41 39 37 36 37 35 33 35 35 32 29 26 24 25 25 28 31 31 27 26 26 25 25 27 28 28 29 29 27 26 26 23 18 14 15 17 18 18 18
Wind_Direction
195 195 196 195 201 203 199 205 208 203 203 206 208 210 213 216 215 217 223 227 231 232 230 231 231 228 224 221 219 218 216 212 211 208 204 202 203 208 212 210 215 226 223 217 225 233 235 234 219 214 217 216 215 216 218 224 225 223 223 224 226 228 238
201 193 190 198 200 199 199 202 205 204 204 206 210 213 214 215 215 218 224 229 232 232 231 231 232 229 224 222 219 216 214 215 217 212 208 209 206 206 212 214 219 227 230 231 235 245 252 256 241 215 207 209 214 219 224 226 223 224 227 230 230 225 227
201 193 190 199 198 193 198 201 200 203 206 206 208 212 212 214 217 219 224 231 231 231 231 230 232 232 226 223 221 219 217 216 218 215 213 214 215 218 215 213 219 224 229 228 228 237 238 246 255 232 209 207 209 219 233 239 232 220 223 232 233 224 223
205 199 192 196 199 195 197 201 202 202 205 206 206 208 210 212 216 220 225 229 230 232 231 228 233 237 230 225 224 221 217 215 217 216 215 216 220 223 217 212 218 222 226 222 219 229 230 233 243 242 233 220 212 215 228 239 237 220 220 228 229 223 219
210 208 201 196 198 199 198 201 203 203 203 206 207 207 208 210 214 220 225 227 230 232 229 227 233 236 232 229 224 219 215 214 218 217 215 219 221 221 219 217 220 224 227 223 218 220 225 231 237 241 249 239 229 229 221 219 221 219 222 224 224 224 219
213 215 211 202 199 199 198 201 203 204 203 205 207 207 206 208 213 219 225 228 230 230 229 227 229 230 232 229 221 218 218 216 219 220 220 222 221 220 218 215 220 227 227 223 219 218 222 230 235 240 249 251 254 260 223 197 205 219 221 221 224 223 219
212 216 214 210 207 200 196 201 204 204 205 205 205 207 206 206 211 218 224 227 228 229 229 227 227 230 231 225 217 219 223 221 221 221 222 222 220 219 217 215 220 225 229 226 220 219 224 228 231 236 246 257 264 265 230 200 204 219 219 216 219 218 219
213 215 214 214 214 204 194 198 204 204 207 206 204 206 204 205 210 217 224 227 225 226 229 227 226 228 228 224 221 222 223 224 223 222 222 221 220 222 221 221 221 222 231 230 221 221 224 227 231 233 240 255 257 234 226 230 223 220 215 213 216 213 215
212 211 211 212 217 212 199 196 203 206 206 206 207 207 206 206 210 216 225 227 224 226 230 228 224 224 227 225 223 223 223 225 225 223 223 223 222 223 222 222 220 222 230 229 223 224 224 225 229 230 237 251 253 238 230 235 234 228 217 210 213 208 210
211 211 209 210 214 214 205 199 203 206 206 207 210 213 211 208 210 215 222 226 225 226 228 228 224 223 226 223 219 221 222 222 223 223 224 224 223 222 222 223 222 223 229 228 223 221 222 225 225 230 244 249 248 245 240 237 232 228 219 212 209 206 209
212 212 211 210 209 208 206 204 204 204 205 209 213 215 214 213 214 216 221 225 225 226 227 225 223 221 222 220 216 219 220 220 223 224 224 224 223 222 222 224 224 225 225 223 223 220 219 222 222 233 246 241 236 237 239 247 243 227 216 210 207 210 211
211 211 210 211 209 205 204 204 204 204 206 211 213 213 210 211 215 217 222 225 224 225 225 221 219 218 219 218 216 218 218 219 221 222 222 222 221 223 224 223 223 225 221 216 219 222 219 221 226 234 236 230 230 230 231 245 252 231 207 202 207 213 207
210 208 207 209 209 206 203 202 203 205 206 208 207 206 206 208 211 214 220 223 224 225 221 216 217 216 216 219 218 219 219 217 217 215 218 221 220 221 223 222 221 219 215 212 219 224 222 222 225 227 225 224 226 226 224 231 238 226 197 199 205 201 208
209 207 206 209 210 208 205 203 204 204 203 203 202 201 207 211 211 211 216 221 224 225 218 215 216 213 216 220 219 218 218 217 219 216 216 222 224 221 220 222 223 218 210 213 222 224 221 220 222 222 220 220 222 222 219 219 226 223 206 209 207 198 220
209 208 206 208 210 210 209 207 205 202 201 204 203 201 207 212 210 209 214 218 220 221 217 214 214 213 217 219 217 218 217 216 219 216 213 220 226 227 223 221 222 221 217 217 219 218 217 218 220 221 217 214 216 218 217 216 220 222 215 222 223 218 236
207 209 207 208 209 209 211 209 205 201 200 204 205 205 210 211 206 205 213 217 216 214 214 214 215 215 216 216 216 220 220 216 217 216 214 218 223 226 226 221 215 214 215 215 214 213 214 214 214 216 215 213 213 214 217 217 217 220 219 224 231 233 245
204 207 208 209 208 207 209 208 205 202 200 203 205 207 210 207 203 205 211 216 215 212 213 217 219 219 217 214 216 219 221 217 217 218 216 217 221 223 224 222 213 209 213 217 219 218 216 213 210 209 209 213 214 210 214 216 215 219 216 216 232 236 232
205 207 208 209 209 208 207 205 204 202 201 203 206 208 207 203 202 207 211 215 216 213 214 216 218 220 217 214 215 218 221 219 218 220 217 217 221 220 221 224 217 213 220 225 226 224 220 218 217 210 204 209 211 207 212 216 213 213 210 210 230 229 210
206 206 205 207 209 210 208 204 205 204 201 203 206 208 207 204 204 207 211 215 215 212 211 212 214 217 215 213 214 217 220 221 220 222 219 217 220 218 221 227 220 218 228 230 228 226 222 224 224 215 206 206 207 208 211 213 209 210 215 215 217 211 204
205 205 203 206 210 212 210 207 207 207 204 202 205 209 208 206 206 206 209 213 213 208 208 212 215 215 212 212 215 215 219 221 219 220 219 216 219 222 226 229 223 224 231 231 229 227 224 226 226 217 213 210 202 207 213 212 211 214 217 215 206 205 205
204 204 203 203 208 213 213 210 207 209 205 200 204 210 209 207 207 206 206 210 210 206 206 211 214 214 213 214 216 215 216 219 218 218 218 217 222 228 230 229 225 227 232 231 228 228 226 228 225 216 216 211 202 211 218 214 212 211 208 207 205 205 205
201 201 202 200 204 213 215 212 208 209 207 200 203 211 211 207 209 208 206 208 208 207 207 208 211 212 212 213 216 216 213 216 218 216 217 222 227 231 232 230 226 226 230 229 226 226 227 229 224 217 217 215 212 219 221 212 206 205 203 205 205 204 205
202 199 200 200 203 210 214 214 210 208 208 203 203 210 210 206 208 209 208 207 208 208 209 210 212 212 210 209 212 214 213 215 217 215 220 228 232 233 233 230 225 225 228 228 226 228 229 227 222 218 219 221 222 222 215 204 201 201 201 203 205 206 206
205 201 198 199 204 208 212 214 211 209 209 205 204 210 209 205 208 210 209 208 208 208 210 213 215 215 213 209 207 209 212 215 214 213 223 232 234 235 234 228 225 228 230 230 230 231 231 227 221 220 222 225 224 218 209 201 198 199 202 205 207 208 209
206 205 201 198 204 210 214 214 210 209 210 206 204 209 208 204 207 210 209 209 209 209 212 216 216 215 216 216 210 206 208 214 214 214 225 234 235 236 234 226 226 233 234 233 234 232 228 225 222 222 226 227 223 217 213 206 199 197 200 207 211 210 210
206 207 203 200 205 211 214 213 210 208 210 208 205 209 208 204 206 209 208 207 209 210 212 214 214 216 222 226 221 215 211 212 215 217 227 235 236 235 234 227 227 235 237 234 233 230 226 223 222 222 224 225 222 220 220 216 208 202 200 202 210 214 211
207 207 201 199 205 210 211 211 209 209 211 210 208 210 209 204 205 209 209 206 208 210 214 217 219 223 230 233 230 228 223 215 216 220 226 234 235 233 233 230 230 235 239 235 230 227 226 224 223 222 222 222 222 223 224 221 216 212 208 203 203 211 214
205 204 197 197 205 210 211 210 209 209 209 210 211 212 210 207 206 208 209 208 207 211 220 227 227 228 231 231 232 235 231 218 217 222 222 229 234 232 231 232 231 235 239 236 229 227 227 225 223 222 221 221 223 225 225 221 218 218 215 210 206 205 209
199 196 195 200 205 209 209 208 209 208 206 209 215 214 211 210 209 207 208 210 207 212 225 229 227 226 229 229 231 237 233 219 214 221 221 225 232 232 230 232 231 232 237 237 229 227 227 225 222 221 220 221 224 227 225 222 221 220 218 217 217 214 214
199 194 195 202 205 207 209 208 207 205 205 209 215 214 210 211 211 209 210 211 208 215 226 227 224 225 227 227 228 234 231 219 213 219 221 223 229 230 229 231 230 231 235 235 229 226 226 225 221 219 220 222 224 226 226 225 224 222 221 223 227 228 227
205 199 196 199 204 208 210 209 205 204 206 210 215 216 213 212 212 210 212 212 210 217 226 226 222 223 225 225 227 231 229 220 213 218 221 220 225 227 228 230 229 226 231 234 230 225 225 224 220 219 220 222 223 224 226 228 227 223 222 224 228 233 235
206 202 198 199 204 208 208 206 204 206 210 215 217 217 214 213 213 211 212 214 213 218 225 225 221 222 225 224 226 232 229 218 211 217 218 217 223 225 226 231 229 222 223 231 230 226 225 222 218 218 219 219 221 221 224 231 232 226 223 225 228 231 235
202 199 199 202 207 208 206 205 207 210 214 216 215 214 214 214 212 210 212 215 216 218 222 224 223 223 225 224 226 230 226 216 210 212 212 216 226 227 223 229 232 223 218 226 229 226 224 219 214 216 217 215 218 219 219 228 236 232 227 229 230 232 236
199 200 202 203 205 205 205 208 211 211 212 212 209 208 212 212 209 209 212 216 219 220 222 225 225 223 223 224 224 226 224 218 210 209 215 223 232 230 221 223 231 228 221 224 229 226 221 218 217 219 218 215 217 218 212 218 233 238 234 232 233 234 237
199 203 203 202 203 205 207 211 213 212 211 211 208 207 211 212 210 210 213 217 220 220 221 223 225 224 224 224 223 224 225 222 215 212 219 226 229 226 217 217 228 233 228 226 229 227 223 223 224 222 219 216 216 216 210 207 223 238 237 230 229 232 232
198 202 204 203 205 208 210 210 210 212 212 210 208 209 213 215 212 210 214 218 217 216 219 222 224 225 224 224 223 223 225 223 219 216 219 223 224 220 212 214 227 236 232 226 228 228 226 228 228 223 221 223 222 220 216 208 210 229 231 220 217 221 222
201 203 205 205 206 207 207 206 206 210 210 208 206 208 213 217 214 208 211 215 210 213 219 221 223 225 224 221 221 222 222 221 221 221 219 219 219 215 214 224 235 239 235 230 230 228 226 229 229 225 225 229 229 226 224 216 208 215 222 216 214 217 219